GW4780 Weather Reports


Display with metric or nautical units.
time (UTC)temp
F
wind
direction
speed
MPH
gust
MPH
rain 1hr
in
rain 24hr
in
rain mn
in
humidity
%
barometer
mb
20260510223503 38 158 0.0 1.0 0.00 0.00 0.00 82 1013.9
20260510223004 39 0 0.0 0.0 0.00 0.00 0.00 81 1013.9
20260510222503 39 158 0.0 1.0 0.00 0.00 0.00 81 1014.1
20260510222003 39 158 0.0 1.0 0.00 0.00 0.00 80 1014.1
20260510221503 39 158 0.0 1.0 0.00 0.00 0.00 80 1014.1
20260510221004 39 158 0.0 1.0 0.00 0.00 0.00 80 1014.2
20260510220504 40 158 0.0 1.0 0.00 0.00 0.00 79 1014.3
20260510220003 40 158 0.0 2.0 0.00 0.00 0.00 79 1014.4
20260510215503 40 158 0.0 2.0 0.00 0.00 0.00 79 1014.4
20260510215219 40 158 0.0 2.0 0.00 0.00 0.00 79 1014.5
20260510214718 40 158 0.0 1.0 0.00 0.00 0.00 78 1014.6
20260510214004 40 158 0.0 1.0 0.00 0.00 0.00 78 1014.5
20260510213718 41 158 0.0 1.0 0.00 0.00 0.00 77 1014.6
20260510213003 41 158 0.0 1.0 0.00 0.00 0.00 76 1014.6
20260510212718 41 158 0.0 1.0 0.00 0.00 0.00 76 1014.6
20260510212003 42 158 0.0 1.0 0.00 0.00 0.00 74 1014.5
20260510211504 42 158 0.0 1.0 0.00 0.00 0.00 74 1014.6
20260510211004 42 158 0.0 1.0 0.00 0.00 0.00 74 1014.6
20260510210504 42 158 0.0 1.0 0.00 0.00 0.00 73 1014.8
20260510210217 42 158 0.0 1.0 0.00 0.00 0.00 73 1014.7
20260510205503 43 158 0.0 2.0 0.00 0.00 0.00 71 1014.8
20260510205219 43 158 0.0 2.0 0.00 0.00 0.00 72 1014.8
20260510204718 44 0 0.0 0.0 0.00 0.00 0.00 70 1014.8
20260510204004 44 0 0.0 0.0 0.00 0.00 0.00 69 1014.8
20260510203718 44 0 0.0 0.0 0.00 0.00 0.00 69 1014.8
20260510203003 45 158 0.0 1.0 0.00 0.00 0.00 68 1014.8
20260510202504 45 158 0.0 1.0 0.00 0.00 0.00 68 1014.8
20260510202003 46 158 0.0 1.0 0.00 0.00 0.00 67 1014.9
20260510201503 46 158 0.0 1.0 0.00 0.00 0.00 66 1014.9
20260510201003 46 158 0.0 1.0 0.00 0.00 0.00 65 1015.0
20260510200503 47 158 0.0 2.0 0.00 0.00 0.00 63 1015.0
20260510200216 47 158 1.0 2.0 0.00 0.00 0.00 63 1015.0
20260510195503 47 156 1.0 2.0 0.00 0.00 0.00 62 1015.1
20260510195004 48 151 1.0 2.0 0.00 0.00 0.00 60 1015.0
20260510194504 48 156 1.0 3.0 0.00 0.00 0.00 60 1015.0
20260510194004 48 150 1.0 3.0 0.00 0.00 0.00 60 1015.1
20260510193504 49 109 0.0 2.0 0.00 0.00 0.00 59 1015.2
20260510193004 49 105 0.0 1.0 0.00 0.00 0.00 59 1015.3
20260510192504 49 95 0.0 2.0 0.00 0.00 0.00 58 1015.3
20260510192003 50 79 1.0 3.0 0.00 0.00 0.00 57 1015.3
20260510191505 50 72 1.0 3.0 0.00 0.00 0.00 57 1015.2
20260510191003 50 70 1.0 4.0 0.00 0.00 0.00 57 1015.3
20260510190504 50 72 2.0 6.0 0.00 0.00 0.00 56 1015.4
20260510190003 51 70 2.0 6.0 0.00 0.00 0.00 55 1015.4
20260510185504 51 66 2.0 4.0 0.00 0.00 0.00 55 1015.5
20260510185218 51 67 1.0 4.0 0.00 0.00 0.00 55 1015.5
20260510184504 51 69 1.0 3.0 0.00 0.00 0.00 54 1015.5
20260510184004 51 68 1.0 3.0 0.00 0.00 0.00 54 1015.6
20260510183504 51 68 1.0 3.0 0.00 0.00 0.00 53 1015.5
20260510183003 51 64 1.0 3.0 0.00 0.00 0.00 54 1015.5
20260510182717 51 66 2.0 4.0 0.00 0.00 0.00 54 1015.6
20260510182003 51 46 2.0 8.0 0.00 0.00 0.00 52 1015.7
20260510181503 52 27 2.0 8.0 0.00 0.00 0.00 52 1015.8
20260510181003 52 35 2.0 6.0 0.00 0.00 0.00 52 1015.7
20260510180504 52 32 2.0 6.0 0.00 0.00 0.00 51 1015.7
20260510180003 52 29 2.0 5.0 0.00 0.00 0.00 51 1015.8
20260510175503 52 37 2.0 8.0 0.00 0.00 0.00 52 1015.8
20260510175004 53 47 2.0 8.0 0.00 0.00 0.00 51 1015.8
20260510174504 53 57 2.0 6.0 0.00 0.00 0.00 51 1016.0
20260510174004 53 61 1.0 6.0 0.00 0.00 0.00 52 1016.0
20260510173504 52 40 2.0 4.0 0.00 0.00 0.00 52 1016.0
20260510173003 52 22 2.0 7.0 0.00 0.00 0.00 51 1016.1
20260510172716 52 25 2.0 7.0 0.00 0.00 0.00 51 1016.1
20260510172219 52 35 2.0 7.0 0.00 0.00 0.00 50 1016.1
20260510171504 53 49 3.0 5.0 0.00 0.00 0.00 51 1016.1
20260510171004 53 53 2.0 5.0 0.00 0.00 0.00 50 1016.2
20260510170503 53 47 2.0 4.0 0.00 0.00 0.00 51 1016.3
20260510170003 53 47 2.0 4.0 0.00 0.00 0.00 51 1016.3
20260510165503 53 52 2.0 8.0 0.00 0.00 0.00 50 1016.4
20260510165219 53 48 2.0 8.0 0.00 0.00 0.00 50 1016.3
20260510164716 53 28 3.0 9.0 0.00 0.00 0.00 50 1016.5
20260510164004 54 33 4.0 9.0 0.00 0.00 0.00 49 1016.5
20260510163504 54 49 3.0 10.0 0.00 0.00 0.00 48 1016.5
20260510163003 55 42 3.0 10.0 0.00 0.00 0.00 46 1016.6
20260510162503 55 56 3.0 10.0 0.00 0.00 0.00 48 1016.7
20260510162004 55 71 3.0 9.0 0.00 0.00 0.00 47 1016.8
20260510161503 55 67 3.0 9.0 0.00 0.00 0.00 48 1016.9
20260510161003 55 59 4.0 9.0 0.00 0.00 0.00 47 1016.9
20260510160718 55 42 4.0 9.0 0.00 0.00 0.00 47 1017.0
20260510160219 55 22 3.0 9.0 0.00 0.00 0.00 47 1017.1
20260510155503 55 27 3.0 9.0 0.00 0.00 0.00 45 1017.1
20260510155217 55 29 3.0 9.0 0.00 0.00 0.00 46 1017.1
20260510154504 55 31 4.0 10.0 0.00 0.00 0.00 47 1017.2
20260510154004 56 11 4.0 12.0 0.00 0.00 0.00 47 1017.2
20260510153503 55 10 5.0 12.0 0.00 0.00 0.00 44 1017.1
20260510153217 55 22 4.0 12.0 0.00 0.00 0.00 46 1017.2
20260510152503 56 57 5.0 11.0 0.00 0.00 0.00 45 1017.3
20260510152003 57 48 4.0 10.0 0.00 0.00 0.00 45 1017.3
20260510151718 57 38 4.0 9.0 0.00 0.00 0.00 45 1017.3
20260510151003 56 21 4.0 12.0 0.00 0.00 0.00 46 1017.4
20260510150504 56 11 3.0 10.0 0.00 0.00 0.00 45 1017.4
20260510150003 57 23 4.0 11.0 0.00 0.00 0.00 44 1017.6
20260510145503 57 23 4.0 14.0 0.00 0.00 0.00 44 1017.6
20260510145219 57 12 4.0 14.0 0.00 0.00 0.00 45 1017.6
20260510144503 57 14 4.0 12.0 0.00 0.00 0.00 44 1017.7
20260510144004 57 32 4.0 10.0 0.00 0.00 0.00 45 1017.9
20260510143504 57 37 3.0 10.0 0.00 0.00 0.00 45 1018.1
20260510143004 56 43 4.0 12.0 0.00 0.00 0.00 46 1018.1
20260510142504 56 25 4.0 12.0 0.00 0.00 0.00 46 1018.3
20260510142003 56 17 4.0 12.0 0.00 0.00 0.00 45 1018.3
20260510141503 57 29 4.0 12.0 0.00 0.00 0.00 46 1018.2
20260510141003 56 42 3.0 11.0 0.00 0.00 0.00 47 1018.3
20260510140503 56 40 4.0 10.0 0.00 0.00 0.00 48 1018.4
20260510140004 57 27 4.0 10.0 0.00 0.00 0.00 45 1018.5
20260510135503 57 34 4.0 11.0 0.00 0.00 0.00 45 1018.5
20260510135003 56 46 4.0 11.0 0.00 0.00 0.00 46 1018.5
20260510134503 56 42 4.0 11.0 0.00 0.00 0.00 46 1018.4
20260510134004 57 26 4.0 11.0 0.00 0.00 0.00 46 1018.5
20260510133504 57 27 4.0 11.0 0.00 0.00 0.00 44 1018.6
20260510133003 56 19 4.0 11.0 0.00 0.00 0.00 43 1018.7
20260510132719 56 5 3.0 10.0 0.00 0.00 0.00 45 1018.7
20260510132218 56 360 4.0 11.0 0.00 0.00 0.00 44 1018.8
20260510131503 56 17 6.0 13.0 0.00 0.00 0.00 46 1018.9
20260510131004 56 34 5.0 10.0 0.00 0.00 0.00 46 1018.9
20260510130504 56 28 4.0 10.0 0.00 0.00 0.00 47 1018.9
20260510130003 56 14 5.0 10.0 0.00 0.00 0.00 46 1018.9
20260510125504 56 16 5.0 11.0 0.00 0.00 0.00 46 1019.0
20260510125003 56 15 5.0 11.0 0.00 0.00 0.00 49 1019.0
20260510124503 56 20 5.0 12.0 0.00 0.00 0.00 47 1019.2
20260510124218 56 33 4.0 12.0 0.00 0.00 0.00 47 1019.1
20260510123503 56 55 4.0 13.0 0.00 0.00 0.00 48 1019.2
20260510123217 57 53 4.0 13.0 0.00 0.00 0.00 46 1019.2
20260510122504 57 46 3.0 10.0 0.00 0.00 0.00 47 1019.2
20260510122004 57 55 4.0 10.0 0.00 0.00 0.00 49 1019.3
20260510121503 56 51 5.0 11.0 0.00 0.00 0.00 50 1019.3
20260510121003 56 42 4.0 11.0 0.00 0.00 0.00 49 1019.5
20260510120503 56 25 4.0 13.0 0.00 0.00 0.00 51 1019.4
20260510120003 56 24 5.0 13.0 0.00 0.00 0.00 50 1019.6
20260510115503 55 19 5.0 13.0 0.00 0.00 0.00 51 1019.5
20260510115004 55 17 5.0 13.0 0.00 0.00 0.00 52 1019.6
20260510114504 56 13 5.0 13.0 0.00 0.00 0.00 52 1019.7
20260510114004 56 35 5.0 13.0 0.00 0.00 0.00 51 1019.7
20260510113503 56 60 5.0 11.0 0.00 0.00 0.00 51 1019.7
20260510113003 56 52 5.0 13.0 0.00 0.00 0.00 51 1019.8
20260510112504 56 49 5.0 13.0 0.00 0.00 0.00 53 1019.8
20260510112219 55 47 5.0 11.0 0.00 0.00 0.00 56 1019.8
20260510111504 55 30 5.0 13.0 0.00 0.00 0.00 55 1019.9
20260510111004 55 8 5.0 14.0 0.00 0.00 0.00 53 1020.0
20260510110718 55 6 5.0 14.0 0.00 0.00 0.00 52 1020.0
20260510110217 55 21 5.0 13.0 0.00 0.00 0.00 51 1020.1
20260510105504 55 64 4.0 10.0 0.00 0.00 0.00 53 1020.0
20260510105004 55 46 4.0 10.0 0.00 0.00 0.00 51 1020.2
20260510104503 55 19 5.0 12.0 0.00 0.00 0.00 53 1020.3
20260510104004 54 25 5.0 12.0 0.00 0.00 0.00 53 1020.3
20260510103504 54 46 5.0 12.0 0.00 0.00 0.00 55 1020.4
20260510103004 54 38 5.0 13.0 0.00 0.00 0.00 55 1020.4
20260510102718 54 26 5.0 13.0 0.00 0.00 0.00 58 1020.4
20260510102004 53 21 4.0 11.0 0.00 0.00 0.00 57 1020.4
20260510101504 52 23 4.0 13.0 0.00 0.00 0.00 58 1020.5
20260510101004 53 14 5.0 13.0 0.00 0.00 0.00 58 1020.6
20260510100718 53 8 5.0 13.0 0.00 0.00 0.00 58 1020.7
20260510100004 52 21 5.0 11.0 0.00 0.00 0.00 59 1020.7
20260510095504 52 39 5.0 12.0 0.00 0.00 0.00 59 1020.7
20260510095004 52 41 5.0 12.0 0.00 0.00 0.00 60 1020.8
20260510094504 52 26 5.0 12.0 0.00 0.00 0.00 61 1020.8
20260510094004 52 23 5.0 12.0 0.00 0.00 0.00 61 1021.0
20260510093504 52 20 5.0 13.0 0.00 0.00 0.00 62 1021.0
20260510093004 52 18 5.0 13.0 0.00 0.00 0.00 60 1021.1
20260510092504 52 29 5.0 10.0 0.00 0.00 0.00 61 1020.9
20260510092003 52 27 5.0 10.0 0.00 0.00 0.00 63 1020.9
20260510091503 52 30 5.0 12.0 0.00 0.00 0.00 63 1021.0
20260510091003 52 27 4.0 12.0 0.00 0.00 0.00 65 1021.1
20260510090504 51 21 4.0 11.0 0.00 0.00 0.00 67 1021.2
20260510090004 51 18 4.0 11.0 0.00 0.00 0.00 66 1021.1
20260510085504 50 9 4.0 12.0 0.00 0.00 0.00 67 1021.4
20260510085004 51 13 4.0 12.0 0.00 0.00 0.00 67 1021.2
20260510084504 51 19 4.0 9.0 0.00 0.00 0.00 70 1021.3
20260510084003 51 9 5.0 12.0 0.00 0.00 0.00 69 1021.3
20260510083504 50 15 5.0 12.0 0.00 0.00 0.00 70 1021.2
20260510083003 50 41 4.0 12.0 0.00 0.00 0.00 71 1021.3
20260510082504 50 25 5.0 12.0 0.00 0.00 0.00 72 1021.3
20260510082218 49 13 5.0 11.0 0.00 0.00 0.00 72 1021.2
20260510081504 49 11 4.0 10.0 0.00 0.00 0.00 74 1021.3
20260510081218 49 9 4.0 9.0 0.00 0.00 0.00 76 1021.4
20260510080504 48 2 5.0 12.0 0.00 0.00 0.00 76 1021.3
20260510080004 48 360 5.0 12.0 0.00 0.00 0.00 76 1021.3
20260510075503 48 359 5.0 11.0 0.00 0.00 0.00 77 1021.2
20260510075218 48 6 5.0 11.0 0.00 0.00 0.00 77 1021.2
20260510074503 47 17 5.0 11.0 0.00 0.00 0.00 77 1021.2
20260510074004 48 23 4.0 11.0 0.00 0.00 0.00 76 1021.3
20260510073503 48 20 3.0 9.0 0.00 0.00 0.00 77 1021.3
20260510073003 47 10 4.0 11.0 0.00 0.00 0.00 77 1021.2
20260510072503 47 11 4.0 11.0 0.00 0.00 0.00 77 1021.2
20260510072003 48 9 4.0 10.0 0.00 0.00 0.00 77 1021.3
20260510071503 48 7 4.0 10.0 0.00 0.00 0.00 77 1021.3
20260510071003 47 17 4.0 14.0 0.00 0.00 0.00 78 1021.3
20260510070504 47 19 4.0 14.0 0.00 0.00 0.00 78 1021.2
20260510070004 47 12 4.0 10.0 0.00 0.00 0.00 78 1021.3
20260510065504 47 7 5.0 13.0 0.00 0.00 0.00 78 1021.2
20260510065003 47 6 4.0 13.0 0.00 0.00 0.00 79 1021.2
20260510064504 46 3 3.0 7.0 0.00 0.00 0.00 81 1021.2
20260510064004 46 9 3.0 11.0 0.00 0.00 0.00 81 1021.1
20260510063504 46 11 3.0 11.0 0.00 0.00 0.00 81 1021.1
20260510063003 46 11 3.0 9.0 0.00 0.00 0.00 82 1021.1
20260510062716 46 6 3.0 9.0 0.00 0.00 0.00 82 1021.1
20260510062003 45 5 4.0 10.0 0.00 0.00 0.00 83 1021.0
20260510061718 45 3 4.0 10.0 0.00 0.00 0.00 83 1021.0
20260510061003 45 360 4.0 10.0 0.00 0.00 0.00 83 1021.1
20260510060503 45 2 4.0 10.0 0.00 0.00 0.00 83 1021.1
20260510060217 45 3 4.0 10.0 0.00 0.00 0.00 84 1021.0
20260510055503 45 5 3.0 7.0 0.00 0.00 0.00 84 1021.0
20260510055003 45 2 3.0 8.0 0.00 0.00 0.00 84 1021.0
20260510054503 45 3 3.0 8.0 0.00 0.00 0.00 84 1021.0
20260510054003 45 8 3.0 10.0 0.00 0.00 0.00 84 1021.0
20260510053504 45 7 4.0 11.0 0.00 0.00 0.00 84 1021.0
20260510053003 45 7 3.0 11.0 0.00 0.00 0.00 84 1021.0
20260510052503 45 5 3.0 9.0 0.00 0.00 0.00 84 1020.9
20260510052004 45 2 5.0 11.0 0.00 0.00 0.00 83 1020.9
20260510051504 45 3 5.0 12.0 0.00 0.00 0.00 83 1020.9
20260510051219 45 2 5.0 12.0 0.00 0.00 0.00 83 1021.0
20260510050504 45 358 6.0 12.0 0.00 0.00 0.00 83 1021.0
20260510050003 45 360 6.0 13.0 0.00 0.00 0.00 83 1020.9
20260510045503 45 358 5.0 13.0 0.00 0.00 0.00 82 1021.1
20260510045219 45 358 5.0 13.0 0.00 0.00 0.00 82 1021.0
20260510044504 45 360 5.0 11.0 0.00 0.00 0.00 83 1021.1
20260510044003 45 2 5.0 11.0 0.00 0.00 0.00 82 1021.0
20260510043503 46 3 4.0 12.0 0.00 0.00 0.00 82 1021.0
20260510043003 46 5 4.0 12.0 0.00 0.00 0.00 83 1021.0
20260510042717 46 5 4.0 12.0 0.00 0.00 0.00 83 1021.0
20260510042003 46 357 5.0 12.0 0.00 0.00 0.00 83 1021.0
20260510041503 46 360 6.0 15.0 0.00 0.00 0.00 83 1020.9
20260510041003 46 2 6.0 15.0 0.00 0.00 0.00 83 1020.9
20260510040503 46 1 5.0 11.0 0.00 0.00 0.00 84 1020.9
20260510040003 46 2 5.0 11.0 0.00 0.00 0.00 83 1021.0
20260510035504 46 2 5.0 13.0 0.00 0.00 0.00 84 1021.0
20260510035003 46 4 4.0 13.0 0.00 0.00 0.00 84 1021.1
20260510034719 46 10 4.0 11.0 0.00 0.00 0.00 84 1021.1
20260510034004 46 14 3.0 9.0 0.00 0.00 0.00 85 1021.2
20260510033503 46 6 4.0 10.0 0.00 0.00 0.00 86 1021.2
20260510033003 46 1 4.0 12.0 0.00 0.00 0.00 86 1021.3
20260510032503 46 1 3.0 12.0 0.00 0.00 0.00 86 1021.3
20260510032004 46 357 3.0 9.0 0.00 0.00 0.00 86 1021.4
20260510031719 46 355 3.0 9.0 0.00 0.00 0.00 86 1021.4
20260510031004 46 358 4.0 11.0 0.00 0.00 0.00 86 1021.4
20260510030503 46 357 4.0 11.0 0.00 0.00 0.00 85 1021.4
20260510030004 46 1 4.0 11.0 0.00 0.00 0.00 85 1021.5
20260510025503 46 2 4.0 12.0 0.00 0.00 0.00 85 1021.4
20260510025003 47 359 5.0 12.0 0.00 0.00 0.00 84 1021.5
20260510024504 46 357 4.0 10.0 0.00 0.00 0.00 84 1021.5
20260510024004 46 358 4.0 13.0 0.00 0.00 0.00 84 1021.5
20260510023503 46 359 4.0 13.0 0.00 0.00 0.00 84 1021.5
20260510023004 47 359 5.0 14.0 0.00 0.00 0.00 84 1021.5
20260510022503 47 359 5.0 14.0 0.00 0.00 0.00 84 1021.4
20260510022003 47 358 5.0 12.0 0.00 0.00 0.00 85 1021.5
20260510021503 47 360 6.0 12.0 0.00 0.00 0.00 85 1021.3
20260510021003 47 1 5.0 12.0 0.00 0.00 0.00 85 1021.3
20260510020503 47 2 4.0 10.0 0.00 0.00 0.00 85 1021.3
20260510020218 47 2 4.0 10.0 0.00 0.00 0.00 85 1021.3
20260510015504 47 1 4.0 11.0 0.00 0.00 0.00 85 1021.3
20260510015003 47 359 4.0 11.0 0.00 0.00 0.00 85 1021.2
20260510014716 47 359 4.0 11.0 0.00 0.00 0.00 85 1021.2
20260510014218 47 360 5.0 10.0 0.00 0.00 0.00 86 1021.3
20260510013503 47 1 5.0 12.0 0.00 0.00 0.00 86 1021.3
20260510013003 47 360 5.0 12.0 0.00 0.00 0.00 86 1021.3
20260510012503 47 2 5.0 11.0 0.00 0.00 0.00 86 1021.3
20260510012004 47 8 4.0 11.0 0.00 0.00 0.00 86 1021.4
20260510011504 47 6 4.0 11.0 0.00 0.00 0.00 86 1021.3
20260510011219 47 4 4.0 12.0 0.00 0.00 0.00 86 1021.4
20260510010503 47 360 5.0 12.0 0.00 0.00 0.00 86 1021.4
20260510010003 47 2 4.0 10.0 0.00 0.00 0.00 87 1021.4
20260510005503 47 1 4.0 12.0 0.00 0.00 0.00 87 1021.3
20260510005003 47 358 5.0 12.0 0.00 0.00 0.00 87 1021.3
20260510004503 47 354 4.0 10.0 0.00 0.00 0.00 87 1021.3
20260510004003 47 354 4.0 10.0 0.00 0.00 0.00 87 1021.3
20260510003504 47 357 5.0 13.0 0.00 0.00 0.00 87 1021.3
20260510003003 47 1 5.0 13.0 0.00 0.00 0.00 87 1021.3
20260510002504 47 5 5.0 14.0 0.00 0.00 0.00 87 1021.3
20260510002003 47 4 6.0 14.0 0.00 0.00 0.00 87 1021.3
20260510001504 47 5 5.0 12.0 0.00 0.00 0.00 87 1021.4
20260510001004 47 2 4.0 12.0 0.00 0.00 0.00 88 1021.4
20260510000503 47 3 5.0 12.0 0.00 0.00 0.00 88 1021.5
20260510000003 47 2 5.0 13.0 0.00 0.00 0.00 89 1021.4
20260509235503 47 360 5.0 13.0 0.00 0.00 0.00 89 1021.5
20260509235004 47 8 4.0 12.0 0.00 0.00 0.00 89 1021.5
20260509234718 47 8 5.0 10.0 0.00 0.00 0.00 89 1021.6
20260509234004 47 1 6.0 13.0 0.00 0.00 0.00 89 1021.6
20260509233504 47 1 7.0 13.0 0.00 0.00 0.00 90 1021.7
20260509233004 47 360 7.0 13.0 0.00 0.00 0.00 90 1021.7
20260509232503 47 358 5.0 12.0 0.00 0.00 0.00 90 1021.8
20260509232003 47 4 6.0 13.0 0.00 0.00 0.00 90 1021.7
20260509231503 47 8 6.0 13.0 0.00 0.00 0.00 90 1021.6
20260509231003 48 2 5.0 15.0 0.00 0.00 0.00 90 1021.6
20260509230503 48 2 5.0 15.0 0.00 0.00 0.00 90 1021.6
20260509230003 48 360 7.0 14.0 0.00 0.00 0.00 89 1021.5
20260509225503 48 356 7.0 14.0 0.00 0.00 0.00 89 1021.4
20260509225004 48 360 5.0 13.0 0.00 0.00 0.00 89 1021.4
20260509224717 48 3 5.0 13.0 0.00 0.00 0.00 89 1021.4
20260509224003 48 358 7.0 15.0 0.00 0.00 0.00 88 1021.3